AO-07 1 07530U 74089B 16189.17031405 -.00000049 00000-0 -28291-4 0 9990 2 07530 101.5757 159.4409 0011531 272.8899 155.0251 12.53621905905626 FO-29 1 24278U 96046B 16189.21038762 -.00000037 00000-0 -30468-5 0 9990 2 24278 98.5852 111.8079 0350849 150.6470 211.4888 13.53068692982229 RS-22 1 27939U 03042A 16189.80427647 .00000069 00000-0 20867-4 0 9994 2 27939 97.8881 340.6848 0011810 239.7787 120.2267 14.66418446682842 HO-68 1 36122U 09072B 16189.57985569 -.00000059 00000-0 -43517-4 0 9991 2 36122 100.1396 224.6101 0007152 310.8791 49.1705 13.16334793315292 AO-73 1 39444U 13066AE 16189.15847681 .00000277 00000-0 41396-4 0 9998 2 39444 97.6795 241.8070 0057716 316.7438 42.9250 14.81091391140531 EO-79 1 40025U 14033R 16189.70291692 .00000335 00000-0 42510-4 0 9990 2 40025 97.9267 95.1572 0012817 3.9333 356.1981 14.88037480111258 XW-2A 1 40903U 15049E 16189.83870459 .00002192 00000-0 63539-4 0 9998 2 40903 97.4435 205.2375 0017657 64.1705 62.2237 15.36538260 44721 XW-2C 1 40906U 15049H 16189.74073059 .00000958 00000-0 56793-4 0 9994 2 40906 97.4525 196.3751 0014914 332.9164 81.6264 15.13647833 44110 LILACSAT-2 1 40908U 15049K 16189.89661756 .00000358 00000-0 24175-4 0 9992 2 40908 97.4576 196.4088 0015760 325.1440 79.1383 15.12577338 44118 XW-2E 1 40909U 15049L 16189.74494034 .00001419 00000-0 80197-4 0 9995 2 40909 97.4514 196.6628 0014516 336.2028 71.5247 15.14636881 44134 UO-11 1 14781U 84021B 16189.14391330 .00000097 00000-0 18319-4 0 9997 2 14781 97.7477 240.5360 0007175 245.1708 114.8760 14.82760883739217 LO-19 1 20442U 90005G 16189.03763931 -.00000002 00000-0 15387-4 0 9994 2 20442 98.5438 123.7039 0013003 87.7098 272.5574 14.32821163382198 AO-27 1 22825U 93061C 16189.02693910 -.00000015 00000-0 11764-4 0 9993 2 22825 98.7606 145.3977 0007268 259.0685 100.9679 14.29960128188079 IO-26 1 22826U 93061D 16188.85700207 .00000006 00000-0 19656-4 0 9999 2 22826 098.7549 145.3484 0007822 249.5490 110.4852 14.30285215187968 GO-32 1 25397U 98043D 16188.82034778 -.00000018 00000-0 10929-4 0 9998 2 25397 098.5679 133.2537 0000385 353.3784 006.7390 14.23597342934433 NO-44 1 26931U 01043C 16189.19521419 -.00000003 00000-0 30632-4 0 9998 2 26931 67.0513 261.2894 0006479 259.9539 100.0831 14.30414054771009 SO-50 1 27607U 02058C 16189.57068926 .00000161 00000-0 22848-4 0 9991 2 27607 64.5563 98.5676 0066093 212.6068 147.1446 14.75173425728275 CO-55 1 27844U 03031E 16189.01444243 .00000046 00000-0 40797-4 0 9990 2 27844 98.6919 197.0159 0008439 265.3909 94.6304 14.21959641675263 CO-57 1 27848U 03031J 16189.55541565 .00000036 00000-0 36385-4 0 9995 2 27848 98.7016 197.6509 0008370 273.2509 86.7711 14.21585185675238 CO-65 1 32785U 08021C 16189.75186840 .00000285 00000-0 37096-4 0 9994 2 32785 97.6013 223.1118 0012101 223.9314 136.0941 14.87591773443681 PRISM 1 33493U 09002B 16189.81977341 .00000280 00000-0 31449-4 0 9993 2 33493 98.2144 50.8833 0016385 134.5321 225.7248 14.94974661404314 TISAT-1 1 36799U 10035E 16189.80546747 .00000472 00000-0 55182-4 0 9997 2 36799 98.0324 300.4028 0012980 24.6271 335.5563 14.89851671324493 ALMASAT-1 1 38078U 12006B 16189.21411227 .00016157 33994-5 23180-3 0 9990 2 38078 69.4460 328.6925 0377628 72.9508 291.2662 15.03920787232597 DUCHIFAT-1 1 40021U 14033M 16189.70759873 .00000488 00000-0 57434-4 0 9996 2 40021 97.9298 96.2894 0013384 2.1373 357.9899 14.89341793111312 NANOSATCBR1 1 40024U 14033Q 16189.69663732 .00000456 00000-0 54791-4 0 9993 2 40024 97.9272 95.6522 0012632 2.5030 357.6248 14.88746596111287 DTUSAT-2 1 40030U 14033W 16189.28583249 .00000336 00000-0 43006-4 0 9993 2 40030 97.9246 94.1754 0012145 359.6551 0.4654 14.87670412111162 ANTELSAT 1 40034U 14033AA 16189.80726329 .00000237 00000-0 43551-4 0 9998 2 40034 97.9018 77.5669 0058676 320.9784 38.7199 14.73409485110219 MET-2/21 1 22782U 93055A 16189.41319248 .00000053 00000-0 34667-4 0 9998 2 22782 82.5508 297.1787 0021478 320.5417 105.1441 13.83790684154012 NOAA-15 1 25338U 98030A 16189.50443021 .00000072 00000-0 49331-4 0 9998 2 25338 98.7827 193.6946 0011618 123.6763 236.5526 14.25738875943888 NOAA-18 1 28654U 05018A 16189.46623699 .00000051 00000-0 53205-4 0 9994 2 28654 99.1969 196.9244 0013597 321.9643 38.0567 14.12292391573590 NOAA-19 1 33591U 09005A 16189.49430362 .00000051 00000-0 52544-4 0 9991 2 33591 99.0413 146.4352 0014282 157.7053 202.4741 14.12086601382001 HUBBLE 1 20580U 90037B 16189.87332640 .00000588 00000-0 25586-4 0 9993 2 20580 28.4696 122.1071 0002986 73.2192 339.8883 15.08412086238230 ISS 1 25544U 98067A 16189.79043726 .00002730 00000-0 47440-4 0 9998 2 25544 51.6432 315.2407 0001147 51.2330 42.0238 15.54729287 8199 CO-58 1 28895U 05043F 16189.40584713 .00000147 00000-0 37176-4 0 9991 2 28895 97.8337 2.3263 0017632 150.5926 209.6273 14.63214676570061 CAPE1 1 31130U 07012P 16189.81198442 .00000111 00000-0 34170-4 0 9992 2 31130 98.0341 144.5088 0096202 191.1007 168.8070 14.55946527489136 AAUSAT2 1 32788U 08021F 16188.81040267 .00000692 00000-0 71355-4 0 9993 2 32788 097.6020 231.0338 0011639 197.4815 162.6006 14.93257278444022 DO-64 1 32789U 08021G 16189.76389653 .00001638 00000-0 12495-3 0 9994 2 32789 97.6061 248.6294 0013419 183.2397 176.8744 15.03335351445094 CO-66 1 32791U 08021J 16189.06989546 .00000351 00000-0 42134-4 0 9992 2 32791 97.6020 225.6881 0012678 214.4573 145.5824 14.89798751443751 RS-30 1 32953U 08025A 16189.72702969 .00000010 00000-0 -13620-7 0 9995 2 32953 82.5034 93.8835 0018674 321.2511 38.7228 12.43070143368634 JUGNU 1 37839U 11058B 16187.72561029 .00000284 00000-0 99612-5 0 9996 2 37839 19.9625 31.1686 0018949 324.6172 101.7202 14.12544995244653 SRMSAT 1 37841U 11058D 16189.00641738 .00000295 00000-0 16904-4 0 9992 2 37841 19.9730 57.9921 0011830 249.5572 249.2546 14.10543821244487 AO-71 1 37854U 11061E 16189.74975037 .00001765 00000-0 10517-3 0 9999 2 37854 101.7032 242.7254 0172865 13.2353 347.3308 15.02320620255185 HRBE 1 37855U 11061F 16189.11745245 .00001531 00000-0 90657-4 0 9992 2 37855 101.7165 239.8315 0186394 19.5334 341.2895 15.01245233254984 HORYU-2 1 38340U 12025D 16189.59032855 .00000251 00000-0 45414-4 0 9990 2 38340 98.3558 175.7998 0010679 312.8478 47.1832 14.75051772222482 RS-40 1 38735U 12041C 16189.51539332 .00000040 00000-0 21992-3 0 9990 2 38735 82.4727 179.0932 0018335 61.1192 299.1721 12.42572775178895 BEESAT-3 1 39134U 13015E 16189.36714206 .00001372 00000-0 80968-4 0 9992 2 39134 64.8695 257.9681 0009751 297.6822 62.3313 15.16058591177178 BEESAT-2 1 39136U 13015G 16189.60445939 .00001055 00000-0 68777-4 0 9997 2 39136 64.8706 263.4800 0009353 294.3992 65.6155 15.13708402177099 ZACUBE-1 1 39417U 13066B 16189.69057445 .00000251 00000-0 38770-4 0 9992 2 39417 97.6783 241.6854 0058524 316.9989 42.6657 14.80419058141809 TRITON-1 1 39427U 13066M 16189.13955634 .00000175 00000-0 36207-4 0 9997 2 39427 97.6659 221.1655 0115074 14.2960 346.1456 14.67208943140447 GOMX-1 1 39430U 13066Q 16189.76639521 .00000251 00000-0 54567-4 0 9998 2 39430 97.6691 209.1470 0153694 50.9670 310.5083 14.58615409139722 LO-74 1 39440U 13066AA 16189.70333165 .00000212 00000-0 37251-4 0 9996 2 39440 97.6720 233.7268 0080463 338.2499 21.5300 14.75180249141304 SPROUT 1 39770U 14029E 16189.10207229 .00000993 00000-0 12137-3 0 9998 2 39770 97.8737 286.1074 0009882 28.3741 331.8024 14.85440296114896 EO-80 1 40032U 14033Y 16189.71641183 .00000336 00000-0 43127-4 0 9999 2 40032 97.9253 94.6147 0012055 358.4832 1.6345 14.87604004111223 VELOX-1 1 40057U 14034E 16189.79795662 .00000308 00000-0 51647-4 0 9992 2 40057 98.1948 278.9067 0012560 83.0125 277.2507 14.76735805108925 DAURIA DX 1 1 40071U 14037C 16189.81614793 .00000129 00000-0 24174-4 0 9995 2 40071 98.3317 281.5193 0009909 79.8451 280.3889 14.80831752108001 UKUBE-1 1 40074U 14037F 16189.85599609 .00000313 00000-0 45622-4 0 9996 2 40074 98.3367 283.7830 0006083 82.4678 277.7230 14.83102815108130 HODOYOSHI-1 1 40299U 14070B 16189.78903728 .00000709 00000-0 34711-4 0 9991 2 40299 97.4301 271.3983 0012536 214.1195 259.6724 15.21370943 92565 CHUBUSAT-1 1 40300U 14070C 16189.82427764 .00000876 00000-0 43832-4 0 9999 2 40300 97.4250 269.6047 0019797 223.4143 257.9853 15.19883599 92460 QSAT-EOS 1 40301U 14070D 16189.82601841 .00001637 00000-0 75870-4 0 9993 2 40301 97.4191 268.9659 0027901 223.3583 258.5603 15.21192327 92442 FIREBIRD FU3 1 40377U 15003B 16189.77410598 .00002898 00000-0 13288-3 0 9998 2 40377 99.0885 300.5038 0144443 62.1269 299.4503 15.12709093 78898 FIREBIRD FU4 1 40378U 15003C 16189.57190702 .00002834 00000-0 12990-3 0 9998 2 40378 99.0887 300.2784 0144674 62.7306 298.8571 15.12718776 78863 GRIFEX 1 40379U 15003D 16189.79685233 .00002478 00000-0 11892-3 0 9995 2 40379 99.0892 299.6364 0148798 65.7372 295.9315 15.10914299 78840 NO-84 1 40654U 15025D 16189.40127329 .00011669 00000-0 24423-3 0 01651 2 40654 054.9958 329.2265 0209254 123.1969 238.9310 15.25984794027125 NO-83 1 40655U 15025E 16189.37790522 .00016417 00000-0 31199-3 0 01811 2 40655 054.9849 322.2787 0190428 125.9641 235.9186 15.31133703027194 DEORBITSAIL 1 40719U 15032E 16189.70072274 .00000461 00000-0 74987-4 0 9996 2 40719 98.0149 81.1511 0016725 165.9323 194.2356 14.75575017 53517 NUDT-PHONESAT 1 40900U 15049B 16189.75454780 .00002176 00000-0 11329-3 0 9992 2 40900 97.4440 197.1161 0014864 352.2414 62.3742 15.16984006 44195 XW-2D 1 40907U 15049J 16189.67710206 .00001103 00000-0 64786-4 0 9993 2 40907 97.4486 196.1820 0014114 332.1462 92.4992 15.13692465 44105 XW-2F 1 40910U 15049M 16189.76774207 .00001055 00000-0 61316-4 0 9990 2 40910 97.4509 196.4793 0015439 330.4354 78.4248 15.14168193 44014 XW-2B 1 40911U 15049N 16189.82007150 .00001080 00000-0 63511-4 0 9991 2 40911 97.4537 196.5065 0014303 332.1404 152.5910 15.13675343 44023 DCBB 1 40912U 15049P 16189.82251248 .00001545 00000-0 83422-4 0 9990 2 40912 97.4518 197.3636 0015536 325.4139 160.6544 15.16121137 44084 TW-1C 1 40926U 15051B 16189.83486639 .00004957 00000-0 13991-3 0 9996 2 40926 97.2731 226.5289 0013306 343.1647 71.0951 15.36759252 43934 TW-1A 1 40928U 15051D 16189.77070005 .00002340 00000-0 74674-4 0 9997 2 40928 97.2679 225.5195 0013938 1.4161 110.9188 15.33409174 43878 IO-86 1 40931U 15052B 16189.20889783 .00000718 00000-0 11071-4 0 9990 2 40931 5.9981 172.3767 0013487 40.6861 319.4346 14.76467898 41894 GomX-3 1 40949U 98067HA 16189.79705071 .00037494 00000-0 19093-3 0 9999 2 40949 51.6304 287.5287 0004739 312.2451 47.8149 15.81021132 43326 LQSat 1 40958U 15057A 16189.75993278 .00000045 00000-0 14835-4 0 9993 2 40958 98.0140 264.3840 0019705 88.3009 272.0454 14.72877465 40411 AO-85 1 40967U 15058D 16189.32662267 -.00000006 00000-0 18317-4 0 01818 2 40967 064.7753 184.7636 0201870 199.1432 160.1986 14.75052896026244 ATHENOXAT-1 1 41168U 15077C 16189.23880161 .00001814 00000-0 68531-4 0 9995 2 41168 14.9906 166.6229 0012654 278.8858 92.1454 15.10038951 30794 ChubuSat-2 1 41338U 16012B 16189.29091752 .00000317 00000-0 18293-4 0 9997 2 41338 31.0029 142.2168 0014240 245.8711 114.0436 14.99408267 21179 ChubuSat-3 1 41339U 16012C 16189.26893280 .00000328 00000-0 19043-4 0 9997 2 41339 31.0080 142.0844 0014113 251.7180 108.1919 14.99637304 21144 Horyu-4 1 41340U 16012D 16189.16840207 .00000502 00000-0 32477-4 0 9999 2 41340 31.0048 142.1809 0014490 255.7149 104.1875 15.00055351 21156 OUFTI-1 1 41458U 16025C 16189.21443285 .00002366 00000-0 13694-3 0 9993 2 41458 98.2118 200.8526 0176308 1.5419 358.6310 15.01192856 10781 e-st@r-II 1 41459U 16025D 16189.14765029 .00002143 00000-0 12470-3 0 9993 2 41459 98.2104 200.7822 0176034 1.7868 358.3940 15.01175645 10773 AAUSAT4 1 41460U 16025E 16189.80908123 .00002747 00000-0 15815-3 0 9998 2 41460 98.2076 201.4912 0174853 359.4325 0.6643 15.01381020 10873 MinXSS 1 41474U 98067HU 16189.84964301 .00018576 00000-0 25087-3 0 9992 2 41474 51.6455 314.1833 0001924 220.5383 214.1778 15.57811478 8151 CADRE 1 41475U 98067HV 16189.89661205 .00025507 00000-0 32843-3 0 9995 2 41475 51.6424 313.7181 0002506 250.0643 195.5757 15.58869676 8167 STMSat 1 1 41476U 98067HW 16189.59461804 .00016965 00000-0 22994-3 0 9990 2 41476 51.6436 315.4488 0001413 215.6894 231.5020 15.57788658 8029 NODES 1 1 41477U 98067HX 16189.54022088 .00012185 00000-0 17118-3 0 9995 2 41477 51.6449 315.8605 0001993 202.1501 235.0210 15.57137188 8013 NODES 2 1 41478U 98067HY 16189.61225881 .00012084 00000-0 17003-3 0 9991 2 41478 51.6445 315.5043 0001878 201.0573 275.0882 15.57103838 8027 NuSat1-LUSEX 1 41557U 16033B 16189.77640782 .00001569 00000-0 64913-4 0 9999 2 41557 97.4969 262.9589 0015862 136.5375 340.0422 15.25388213 5896 NuSat2 1 41558U 16033C 16189.78006986 .00001637 00000-0 67881-4 0 9996 2 41558 97.4995 262.9665 0015558 134.9179 342.2057 15.25248370 5894 Lapan A3 1 41603U 16040E 16189.83961145 .00000292 00000-0 17227-4 0 9993 2 41603 97.5096 248.9097 0014007 187.5585 307.2017 15.19053076 2371 Swayam 1 41607U 16040J 16189.15754330 .00001559 00000-0 77813-4 0 9992 2 41607 97.5072 248.2187 0013991 195.9340 164.1457 15.18940776 2194 /EX
